Weather reports worldwide

Advertisment
Lyon/Satolas, France (7481): temperature & dewpoint: 02.08.2020 05:00:00 - 08.08.2020 05:00:00 (CEST)Lyon/Satolas, France (7481): temperature 5cm: 02.08.2020 05:00:00 - 08.08.2020 05:00:00 (CEST)Lyon/Satolas, France (7481): temperature -20cm & temperature -100cm: 02.08.2020 05:00:00 - 08.08.2020 05:00:00 (CEST)Lyon/Satolas, France (7481): wind speed & gusts: 02.08.2020 05:00:00 - 08.08.2020 05:00:00 (CEST)Lyon/Satolas, France (7481): wind direction: 02.08.2020 05:00:00 - 08.08.2020 05:00:00 (CEST)Lyon/Satolas, France (7481): reduced air pressure: 02.08.2020 05:00:00 - 08.08.2020 05:00:00 (CEST)Lyon/Satolas, France (7481): visibility: 02.08.2020 05:00:00 - 08.08.2020 05:00:00 (CEST)Lyon/Satolas, France (7481): precipitation: 02.08.2020 05:00:00 - 08.08.2020 05:00:00 (CEST)
Date & Time tt [°C] td [°C] tt 5cm [°C] tt -20cm [°C] tt -100cm [°C] ff [km/h] ff [kn] fx [km/h] fx [kn] dd ppp [hPa] vv [km] rr [mm]
08.08.2020 05:00:00 22,2 11,9 20,0 25,2 23,2 10 6 16 9 SSE 1018,4 60 0,0
08.08.2020 04:00:00 23,0 11,7 20,7 25,5 23,2 8 5 16 9 SSE 1018,5 60 0,0
08.08.2020 03:00:00 24,6 11,5 22,6 25,8 23,1 6 3 18 10 SSE 1018,3 60 0,0
08.08.2020 02:00:00 25,4 12,3 21,7 26,0 23,0 11 6 18 10 S 1017,8 60 0,0
08.08.2020 01:00:00 25,5 12,0 19,2 26,5 23,1 9 5 26 14 SSW 1017,5 60 0,0
08.08.2020 00:00:00 24,9 14,4 19,5 26,9 23,2 0 0 9 5 N 1017,1 60 0,0
07.08.2020 23:00:00 26,5 12,5 20,6 27,2 23,1 5 3 21 11 NNE 1016,4 60 0,0
07.08.2020 22:00:00 27,9 13,0 21,5 27,6 23,1 3 1 10 5 NNE 1015,9 60 0,0
07.08.2020 21:00:00 31,1 12,0 24,1 27,8 23,1 6 4 15 8 NE 1015,0 80 0,0
07.08.2020 20:00:00 33,6 9,6 36,3 28,0 23,1 6 3 14 7 NNE 1014,5 80 0,0
07.08.2020 19:00:00 34,4 3,0 38,6 27,9 23,2 6 4 14 7 ENE 1014,6 60 0,0
07.08.2020 18:00:00 34,5 6,7 41,5 27,5 23,1 9 5 19 10 N 1015,0 60 0,0
07.08.2020 17:00:00 34,4 7,4 41,7 27,1 23,2 5 3 18 10 W 1015,3 60 0,0
07.08.2020 16:00:00 33,5 12,5 39,4 26,3 23,1 6 3 17 9 NNW 1015,8 60 0,0
07.08.2020 15:00:00 32,4 13,6 39,2 25,6 23,2 7 4 22 12 W 1016,3 60 0,0
07.08.2020 14:00:00 31,4 13,6 37,8 24,8 23,2 4 2 19 10 E 1016,7 60 0,0
07.08.2020 13:00:00 30,1 13,8 36,5 24,1 23,1 4 2 16 9 W 1017,2 60 0,0
07.08.2020 12:00:00 29,0 13,2 34,5 23,5 23,1 4 2 17 9 S 1017,7 60 0,0
07.08.2020 11:00:00 26,6 13,0 30,7 23,1 23,2 9 5 19 10 ESE 1018,3 60 0,0
07.08.2020 10:00:00 24,5 12,4 31,0 23,0 23,1 6 4 14 7 ESE 1018,5 60 0,0
07.08.2020 09:00:00 21,8 11,8 25,6 23,1 23,1 6 3 9 5 E 1018,7 60 0,0
07.08.2020 08:00:00 20,1 11,8 19,3 23,2 23,1 2 1 10 6 NW 1018,6 60 0,0
07.08.2020 07:00:00 18,6 13,2 16,8 23,5 23,1 5 3 17 9 SE 1018,6 80 0,0
07.08.2020 06:00:00 18,8 13,0 15,4 23,8 23,1 4 2 16 9 SSE 1018,0 80 0,0
07.08.2020 05:00:00 20,4 11,6 16,1 24,0 23,2 8 4 13 7 SSE 1017,8 50 0,0
07.08.2020 04:00:00 20,5 10,9 16,4 24,3 23,1 3 2 9 5 SE 1017,7 50 0,0
07.08.2020 03:00:00 21,7 11,7 17,0 24,6 23,1 7 4 11 6 SSW 1017,5 60 0,0
07.08.2020 02:00:00 21,6 12,2 17,1 24,9 23,1 5 3 8 5 S 1017,5 60 0,0
07.08.2020 01:00:00 22,9 11,6 18,1 25,2 23,1 5 3 8 5 SW 1017,4 60 0,0
07.08.2020 00:00:00 23,4 12,1 18,8 25,6 23,2 3 2 10 6 SW 1017,1 60 0,0
06.08.2020 23:00:00 24,0 12,6 19,1 25,9 23,2 5 3 10 5 NE 1016,8 60 0,0
06.08.2020 22:00:00 25,9 13,7 20,3 26,3 23,2 6 3 13 7 N 1016,2 80 0,0
06.08.2020 21:00:00 28,0 13,5 25,9 26,5 23,2 9 5 16 9 N 1015,6 80 0,0
06.08.2020 20:00:00 30,0 11,5 33,1 26,7 23,2 13 7 23 12 NNW 1015,3 80 0,0
06.08.2020 19:00:00 30,9 8,0 36,3 26,6 23,2 12 7 23 12 NNW 1015,0 80 0,0
06.08.2020 18:00:00 31,1 8,7 37,7 26,4 23,2 16 9 32 17 N 1015,0 80 0,0
06.08.2020 17:00:00 31,1 10,4 37,5 25,9 23,2 12 6 29 16 NNW 1015,1 80 0,0
06.08.2020 16:00:00 29,8 9,8 36,9 25,2 23,2 7 4 23 12 NNE 1015,5 80 0,0
06.08.2020 15:00:00 29,2 10,8 35,5 24,5 23,3 10 5 21 11 NNW 1016,1 60 0,0
06.08.2020 14:00:00 28,0 11,1 34,5 23,7 23,3 8 4 28 15 N 1016,5 60 0,0
06.08.2020 13:00:00 26,5 12,5 33,3 23,0 23,2 8 4 19 10 WNW 1017,1 60 0,0
06.08.2020 12:00:00 24,8 12,1 31,5 22,4 23,2 5 3 17 9 WNW 1017,6 34 0,0
06.08.2020 11:00:00 23,0 12,0 27,1 22,1 23,3 6 3 13 7 WNW 1017,9 60 0,0
06.08.2020 10:00:00 21,1 11,7 26,9 22,0 23,3 5 3 11 6 W 1018,0 60 0,0
06.08.2020 09:00:00 18,9 11,2 20,9 22,1 23,3 4 2 9 5 W 1018,2 60 0,0
06.08.2020 08:00:00 17,5 9,6 17,1 22,2 23,3 3 1 6 3 SSW 1017,8 60 0,0
06.08.2020 07:00:00 15,8 11,4 13,6 22,5 23,3 2 1 9 5 S 1017,5 60 0,0
06.08.2020 06:00:00 16,8 9,9 13,4 22,8 23,3 3 1 8 4 SSE 1016,9 60 0,0
06.08.2020 05:00:00 17,2 11,2 14,5 23,1 23,3 4 2 6 4 SSE 1016,8 60 0,0
06.08.2020 04:00:00 19,7 10,9 16,1 23,4 23,3 5 3 8 4 S 1016,6 60 0,0
06.08.2020 03:00:00 20,4 11,1 17,2 23,6 23,3 3 2 8 5 SSW 1016,6 60 0,0
06.08.2020 02:00:00 20,4 10,8 15,9 24,0 23,3 6 4 8 4 SSW 1016,3 60 0,0
06.08.2020 01:00:00 20,7 11,1 16,4 24,3 23,4 6 3 13 7 SSE 1015,9 60 0,0
06.08.2020 00:00:00 20,7 12,1 16,5 24,7 23,4 9 5 12 6 SE 1015,7 60 0,0
05.08.2020 23:00:00 21,8 12,4 17,4 25,0 23,4 5 3 12 6 SSW 1015,4 60 0,0
05.08.2020 22:00:00 23,5 10,5 20,5 25,4 23,4 10 6 14 8 E 1014,8 80 0,0
05.08.2020 21:00:00 25,0 9,7 23,3 25,7 23,4 12 7 24 13 NNW 1014,1 80 0,0
05.08.2020 20:00:00 27,2 9,5 30,4 25,8 23,4 17 9 25 13 NNW 1013,5 80 0,0
05.08.2020 19:00:00 28,2 9,5 33,7 25,7 23,4 9 5 23 13 NNW 1013,2 80 0,0
05.08.2020 18:00:00 28,0 9,8 34,4 25,4 23,5 10 5 29 16 NNW 1013,4 80 0,0
05.08.2020 17:00:00 27,6 9,9 34,0 24,8 23,5 10 6 34 18 N 1013,5 80 0,0
05.08.2020 16:00:00 26,8 9,6 32,8 24,0 23,5 8 5 22 12 N 1013,8 80 0,0
05.08.2020 15:00:00 26,1 10,3 32,7 23,3 23,5 7 4 22 12 N 1014,2 80 0,0
05.08.2020 14:00:00 24,4 9,2 32,0 22,5 23,6 9 5 27 15 N 1014,9 70 0,0
05.08.2020 13:00:00 23,2 9,6 30,0 21,7 23,5 8 4 23 12 N 1015,3 60 0,0
05.08.2020 12:00:00 21,1 10,6 28,4 21,2 23,6 7 4 16 9 N 1015,9 60 -
05.08.2020 11:00:00 19,2 10,5 24,1 20,8 23,6 6 3 18 10 SSW 1016,3 60 0,0
05.08.2020 10:00:00 17,1 11,1 24,3 20,6 23,6 6 3 19 10 W 1016,7 60 0,0
05.08.2020 09:00:00 15,5 10,9 19,2 20,7 23,7 5 3 11 6 NNW 1016,5 60 0,0
05.08.2020 08:00:00 14,7 10,9 15,1 20,9 23,7 5 3 13 7 N 1016,7 60 0,0
05.08.2020 07:00:00 13,3 10,8 12,2 21,1 23,7 10 5 14 8 NNW 1016,7 60 0,0
05.08.2020 06:00:00 13,2 10,6 11,5 21,4 23,7 10 5 13 7 NNW 1016,3 60 0,0
05.08.2020 05:00:00 13,7 10,5 11,4 21,7 23,7 4 2 14 8 NNW 1016,1 60 0,0
05.08.2020 04:00:00 14,7 10,7 12,0 21,9 23,8 5 3 9 5 NNE 1016,2 60 0,0
05.08.2020 03:00:00 15,0 11,0 12,3 22,3 23,8 2 1 9 5 NE 1016,2 60 0,0
05.08.2020 02:00:00 15,9 10,6 14,0 22,5 23,8 8 4 16 9 NNE 1016,2 60 0,0
05.08.2020 01:00:00 16,9 11,0 15,3 22,9 23,8 8 5 17 9 N 1015,8 60 0,0
05.08.2020 00:00:00 17,3 11,1 15,5 23,2 23,9 7 4 13 7 N 1016,2 60 0,0
04.08.2020 23:00:00 18,4 10,5 17,0 23,5 23,9 5 3 17 9 E 1015,9 60 0,0
04.08.2020 22:00:00 19,6 10,3 17,8 23,8 23,9 15 8 20 11 N 1015,7 60 0,0
04.08.2020 21:00:00 21,6 9,8 20,6 24,1 23,9 14 7 32 17 N 1015,2 60 0,0
04.08.2020 20:00:00 23,0 9,4 25,1 24,2 24,0 23 13 42 23 N 1014,9 60 0,0
04.08.2020 19:00:00 23,8 9,0 28,1 24,2 24,0 27 14 43 23 N 1014,7 60 0,0
04.08.2020 18:00:00 23,8 8,6 29,0 24,0 24,0 30 16 44 24 N 1014,9 60 0,0
04.08.2020 17:00:00 23,4 10,1 28,6 23,7 24,0 29 16 47 25 N 1015,0 50 0,0
04.08.2020 16:00:00 22,7 10,2 25,6 23,2 24,1 28 15 46 25 N 1015,4 40 0,0
04.08.2020 15:00:00 22,1 9,9 27,5 22,6 24,1 29 16 51 28 N 1015,8 40 0,0
04.08.2020 14:00:00 21,1 10,9 25,7 22,1 24,1 31 17 56 31 N 1016,0 40 0,0
04.08.2020 13:00:00 20,1 11,3 24,9 21,6 24,2 28 15 41 22 N 1016,2 40 0,0
04.08.2020 12:00:00 18,8 11,6 23,7 21,3 24,2 24 13 43 23 NNW 1016,3 40 0,0
04.08.2020 11:00:00 17,4 11,4 19,7 21,0 24,2 24 13 43 23 N 1016,4 40 0,0
04.08.2020 10:00:00 17,0 12,5 21,0 21,0 24,2 27 14 39 21 N 1016,5 40 0,0
04.08.2020 09:00:00 15,9 11,7 18,7 21,1 24,2 24 13 36 19 NNW 1016,4 40 0,0
04.08.2020 08:00:00 14,3 11,4 14,6 21,2 24,2 14 8 23 12 N 1016,1 40 0,0
04.08.2020 07:00:00 13,3 11,2 12,6 21,5 24,3 9 5 15 8 NNW 1015,7 60 0,0
04.08.2020 06:00:00 13,8 11,1 12,4 21,7 24,3 8 4 10 5 N 1015,4 60 0,0
04.08.2020 05:00:00 14,2 11,4 12,8 21,9 24,3 4 2 8 4 WNW 1014,8 60 0,0
04.08.2020 04:00:00 14,7 11,8 13,9 22,1 24,3 3 2 16 8 WSW 1014,8 20 0,0
04.08.2020 03:00:00 14,5 12,7 13,8 22,2 24,3 3 1 6 3 SW 1015,0 40 0,0
04.08.2020 02:00:00 14,5 12,9 13,4 22,5 24,4 6 3 9 5 E 1015,1 40 0,0
04.08.2020 01:00:00 14,2 12,6 12,5 22,7 24,4 4 2 5 3 SSW 1015,3 40 0,0
04.08.2020 00:00:00 14,4 12,6 12,9 23,0 24,4 2 1 6 3 SW 1015,3 40 0,0
03.08.2020 23:00:00 15,0 12,3 13,7 23,3 24,4 2 1 11 6 NE 1015,1 60 0,0
03.08.2020 22:00:00 15,8 12,7 15,0 23,6 24,5 9 5 32 17 ENE 1014,5 60 0,0
03.08.2020 21:00:00 17,1 12,2 16,8 23,8 24,5 18 10 29 16 N 1013,9 60 0,0
03.08.2020 20:00:00 17,0 13,5 16,8 24,1 24,5 9 5 17 9 N 1013,7 60 0,0
03.08.2020 19:00:00 16,5 13,2 14,4 24,3 24,6 15 8 52 28 N 1013,6 20 3,4
03.08.2020 18:00:00 18,5 12,7 16,1 24,4 24,6 26 14 47 25 NNW 1013,2 5 0,2
03.08.2020 17:00:00 21,7 10,5 22,9 24,2 24,6 16 8 30 16 N 1012,4 50 0,0
03.08.2020 16:00:00 19,8 12,1 20,4 24,2 24,6 17 9 42 23 NNE 1013,0 30 0,0
03.08.2020 15:00:00 21,5 10,6 25,2 23,9 24,7 22 12 44 24 N 1013,0 50 0,0
03.08.2020 14:00:00 21,6 10,7 27,0 23,5 24,7 28 15 51 27 N 1013,4 25 0,0
03.08.2020 13:00:00 21,1 12,0 25,2 23,2 24,7 25 13 43 23 N 1013,4 50 0,0
03.08.2020 12:00:00 20,2 12,2 22,7 23,0 24,7 27 15 41 22 N 1013,5 50 0,0
03.08.2020 11:00:00 19,4 12,2 21,4 22,9 24,7 28 15 41 22 N 1013,3 50 0,0
03.08.2020 10:00:00 19,3 12,3 20,2 22,9 24,7 23 12 40 21 NNW 1013,2 50 0,0
03.08.2020 09:00:00 18,7 12,7 19,3 23,0 24,8 18 10 29 16 NNW 1013,3 50 0,0
03.08.2020 08:00:00 18,4 14,9 17,6 23,1 24,8 14 8 29 16 NW 1013,3 50 0,0
03.08.2020 07:00:00 17,6 15,4 17,1 23,3 24,8 13 7 24 13 NNW 1013,2 50 0,0
03.08.2020 06:00:00 17,7 15,5 17,3 23,4 24,9 13 7 24 13 NNW 1013,1 50 0,0
03.08.2020 05:00:00 17,9 15,9 17,5 23,5 24,9 11 6 19 11 NNW 1013,4 50 0,0
03.08.2020 04:00:00 18,0 16,3 17,8 23,7 24,9 10 5 19 10 N 1013,8 40 0,0
03.08.2020 03:00:00 18,4 16,6 18,0 23,8 24,9 16 9 26 14 N 1013,7 30 0,0
03.08.2020 02:00:00 19,8 15,9 19,5 23,9 24,9 18 10 27 15 N 1013,8 50 0,0
03.08.2020 01:00:00 20,3 15,9 19,5 24,0 24,9 11 6 18 10 NNW 1014,2 50 0,0
03.08.2020 00:00:00 20,5 17,1 20,0 24,2 25,0 9 5 16 8 NNW 1014,3 50 0,0
02.08.2020 23:00:00 20,6 17,0 19,6 24,2 25,0 6 4 11 6 N 1014,4 50 0,0
02.08.2020 22:00:00 21,1 17,3 19,7 24,3 25,0 5 3 11 6 NE 1014,2 50 0,0
02.08.2020 21:00:00 21,9 17,5 21,3 24,3 25,0 9 5 23 12 N 1013,7 50 0,0
02.08.2020 20:00:00 23,1 17,3 23,6 24,1 25,0 16 9 31 17 NNW 1014,1 50 0,0
02.08.2020 19:00:00 23,8 17,3 25,1 23,8 25,1 18 10 32 17 N 1013,5 40 0,0
02.08.2020 18:00:00 22,0 19,4 22,0 23,4 25,0 13 7 25 13 N 1013,7 20 0,0
02.08.2020 17:00:00 20,1 19,4 18,8 23,3 25,3 9 5 32 18 E 1014,6 12 4,6
02.08.2020 16:00:00 18,9 18,1 18,4 24,3 25,1 10 5 67 36 NNE 1015,7 1,2 38,3
02.08.2020 15:00:00 24,8 18,5 24,8 25,0 25,1 17 9 34 18 N 1014,3 40 0,2
02.08.2020 14:00:00 25,8 17,2 28,7 24,7 25,1 23 12 42 23 N 1014,2 40 0,0
02.08.2020 13:00:00 25,4 17,8 28,7 24,2 25,1 19 11 34 18 N 1014,6 40 0,0
02.08.2020 12:00:00 24,7 18,2 28,5 23,8 25,1 18 10 30 16 N 1015,0 40 0,0
02.08.2020 11:00:00 24,6 18,1 27,4 23,5 25,1 19 10 32 17 N 1015,2 40 0,0
02.08.2020 10:00:00 22,9 18,7 24,0 23,2 25,1 15 8 23 13 NNW 1015,2 40 0,0
02.08.2020 09:00:00 21,8 18,4 22,6 23,0 25,1 13 7 18 10 NNW 1015,5 40 0,0
02.08.2020 08:00:00 21,5 18,5 21,8 22,9 25,1 9 5 16 9 N 1015,2 40 0,0
02.08.2020 07:00:00 20,5 17,9 18,4 22,8 25,1 2 1 8 4 NNE 1015,1 40 0,0
02.08.2020 06:00:00 20,3 18,2 18,4 22,7 25,2 2 1 10 5 W 1015,1 30 0,0
02.08.2020 05:00:00 20,6 18,4 19,5 22,6 25,2 6 4 10 5 W 1015,3 30 0,0

tt = temperature
td = dewpoint
tt 5cm = temperature 5cm
tt -20cm = temperature -20cm
tt -100cm = temperature -100cm
ff = wind speed
fx = gusts
dd = wind direction
ppp = reduced air pressure
vv = visibility
rr = precipitation

Next stations